BLITS

Satellite information

Favourite Embed

Satellite Type and Status

PAYLOADIN ORBIT

Key statistics

Satellite BLITS at a glance.

Uptime

5712

Days in orbit

Revolutions

≈ 14.2

Per day

Orbit

SSO

Sun Synchronous Orbit

Inclination

98.7

Latest

Satellite identification and parameters

Extended collection of information and parameters for BLITS.

Object identification

Identified? True

Debris? False

Object name: BLITS

International designator: 2009-049G

Object number (NORAD): 35871

Object ID (CCSDS): 35871

Country: COMMONWEALTH OF INDEPENDENT STATES (CIS)

Current information (Y/N): Y

RCS size: SMALL

Orbital parameters

Period: 101.257 minutes

Inclination: 98.7098 deg

SMA: 7196.336 km

Apoapsis: 821.378 km

Periapsis: 815.025 km

RAAN: 88.9668 deg

Eccentricy: 0.0004414

Argument of periapsis: 62.8002 deg

Mean anomaly: 297.3625 deg

Mean motion: 14.22117831 rev/day

Mean motion (dot): 0.00000039 rev/day2

B* drag term: 0.000037413 1/REarth

Two-line elements (TLE)

Creation date: May 8, 2025, 3:01 a.m.

Reference frame: TEME

Reference center: EARTH

Epoch: May 7, 2025, 8:19 p.m. UTC

TLE line 0: 0 BLITS

TLE line 1: 1 35871U 09049G 25127.84694991 .00000039 00000-0 37413-4 0 9997

TLE line 2: 2 35871 98.7098 88.9668 0004414 62.8002 297.3625 14.22117831810860

Live tracking on map

Real-time ground track for satellite BLITS.

In-orbit conjunctions

A list of the most updated potential collisions computed for object BLITS.

Target Orbit TCA Probability of collision Miss distance Type
NOAA 16 DEB SSO 2025-02-14 05:26:02 0.0002613452 270.0 (m) DEBRIS
CZ-6A DEB LEO 2024-10-23 09:17:38 0.0001481581 534.0 (m) DEBRIS
CZ-6A DEB SSO 2024-10-01 01:06:32 0.0001020313 593.0 (m) DEBRIS
CZ-6A DEB SSO 2024-08-10 21:26:05 0.0002511314 854.0 (m) DEBRIS

Associated space launch

Russian meteorology satellite

BLITS was lifted into orbit during the mission ‘Soyuz 2.1b/Fregat | Meteor-M 1’, on board a Soyuz 2.1b/Fregat space rocket.

The launch took place on Sept. 17, 2009, 3:55 p.m. from 31/6.

For more information about the launch, click the button.

Launch to space Soyuz 2.1b/Fregat | Meteor-M 1
Soyuz 2.1b/Fregat | Meteor-M 1

Agency: N/A

Status: Launch Successful

Launch date: Sept. 17, 2009, 3:55 p.m. UTC

Rocket: Soyuz 2.1b/Fregat

Launch pad: 31/6

Location: Baikonur Cosmodrome, Republic of Kazakhstan

...

Latest news about this satellite

There are no fresh news available about this satellite. Check back as we update our databases every day.


Newsletter sign-up

Weekly statistics, charts and insights to help you stay on top of the space industry.